| time (UTC) | temp C | wind direction | speed KPH | gust KPH | rain 1hr cm | rain 24hr cm | rain mn cm | humidity % | barometer mb |
| 20260508100003 | 9 | 0 | 0.0 | 3.2 | 0.00 | 1.04 | 0.00 | 92 | 1018.2 |
| 20260508095003 | 8 | 0 | 0.0 | 0.0 | 0.00 | 1.07 | 0.00 | 92 | 1018.2 |
| 20260508094003 | 8 | 0 | 0.0 | 0.0 | 0.00 | 1.09 | 0.00 | 93 | 1018.2 |
| 20260508093003 | 8 | 0 | 0.0 | 0.0 | 0.00 | 1.12 | 0.00 | 93 | 1018.3 |
| 20260508092006 | 8 | 0 | 0.0 | 0.0 | 0.00 | 1.17 | 0.00 | 94 | 1018.3 |
| 20260508091006 | 8 | 41 | 1.6 | 4.8 | 0.00 | 1.19 | 0.00 | 94 | 1018.3 |
| 20260508090004 | 8 | 37 | 3.2 | 6.4 | 0.00 | 1.24 | 0.00 | 95 | 1018.2 |
| 20260508085003 | 8 | 40 | 1.6 | 4.8 | 0.00 | 1.27 | 0.00 | 95 | 1018.2 |
| 20260508084003 | 8 | 0 | 0.0 | 0.0 | 0.00 | 1.30 | 0.00 | 95 | 1018.1 |
| 20260508083006 | 8 | 0 | 0.0 | 0.0 | 0.00 | 1.35 | 0.00 | 96 | 1018.0 |
| 20260508082003 | 8 | 12 | 1.6 | 3.2 | 0.00 | 1.37 | 0.00 | 96 | 1018.0 |
| 20260508081003 | 7 | 14 | 0.0 | 4.8 | 0.00 | 1.42 | 0.00 | 95 | 1017.9 |
| 20260508080218 | 7 | 0 | 0.0 | 0.0 | 0.00 | 1.45 | 0.00 | 96 | 1017.8 |
| 20260508075218 | 7 | 0 | 0.0 | 0.0 | 0.00 | 1.47 | 0.00 | 96 | 1017.8 |
| 20260508074218 | 7 | 0 | 0.0 | 0.0 | 0.00 | 1.50 | 0.00 | 96 | 1017.7 |
| 20260508073003 | 7 | 0 | 0.0 | 0.0 | 0.00 | 1.55 | 0.00 | 96 | 1017.7 |
| 20260508072003 | 7 | 11 | 1.6 | 3.2 | 0.00 | 1.55 | 0.00 | 96 | 1017.7 |
| 20260508071003 | 7 | 27 | 1.6 | 8.0 | 0.00 | 1.60 | 0.00 | 96 | 1017.5 |
| 20260508070220 | 7 | 49 | 1.6 | 6.4 | 0.00 | 1.65 | 0.00 | 96 | 1017.5 |
| 20260508065003 | 7 | 0 | 0.0 | 4.8 | 0.00 | 1.68 | 0.00 | 96 | 1017.4 |
| 20260508064003 | 7 | 335 | 0.0 | 3.2 | 0.00 | 1.73 | 0.00 | 96 | 1017.4 |
| 20260508063003 | 7 | 2 | 1.6 | 4.8 | 0.00 | 1.78 | 0.00 | 96 | 1017.3 |
| 20260508062006 | 7 | 30 | 1.6 | 8.0 | 0.00 | 1.80 | 0.00 | 96 | 1017.1 |
| 20260508061003 | 7 | 43 | 1.6 | 6.4 | 0.00 | 1.85 | 0.00 | 96 | 1017.1 |
| 20260508060003 | 7 | 16 | 3.2 | 4.8 | 0.00 | 1.91 | 0.00 | 96 | 1017.0 |
| 20260508055003 | 7 | 25 | 3.2 | 6.4 | 0.00 | 1.96 | 0.00 | 96 | 1016.9 |
| 20260508054006 | 7 | 23 | 1.6 | 6.4 | 0.00 | 2.01 | 0.00 | 96 | 1016.8 |
| 20260508053003 | 7 | 33 | 1.6 | 6.4 | 0.00 | 2.03 | 0.00 | 96 | 1016.7 |
| 20260508052003 | 7 | 25 | 3.2 | 6.4 | 0.00 | 2.11 | 0.00 | 96 | 1016.7 |
| 20260508051006 | 7 | 22 | 1.6 | 4.8 | 0.00 | 2.18 | 0.00 | 96 | 1016.7 |
| 20260508050003 | 7 | 17 | 1.6 | 6.4 | 0.00 | 2.24 | 0.00 | 96 | 1016.6 |
| 20260508045006 | 7 | 0 | 0.0 | 0.0 | 0.00 | 2.39 | 0.00 | 96 | 1016.6 |
| 20260508044217 | 7 | 0 | 0.0 | 0.0 | 0.00 | 2.49 | 0.00 | 96 | 1016.6 |
| 20260508043003 | 7 | 0 | 0.0 | 0.0 | 0.00 | 2.59 | 0.00 | 96 | 1016.5 |
| 20260508042003 | 7 | 0 | 0.0 | 0.0 | 0.00 | 2.64 | 0.00 | 96 | 1016.4 |
| 20260508041006 | 7 | 0 | 0.0 | 0.0 | 0.00 | 2.72 | 0.00 | 96 | 1016.4 |
| 20260508040003 | 7 | 0 | 0.0 | 0.0 | 0.00 | 2.77 | 0.00 | 96 | 1016.4 |
| 20260508035003 | 7 | 0 | 0.0 | 0.0 | 0.00 | 2.90 | 0.00 | 96 | 1016.4 |
| 20260508034006 | 7 | 0 | 0.0 | 0.0 | 0.00 | 3.07 | 0.00 | 96 | 1016.3 |
| 20260508033006 | 7 | 0 | 0.0 | 0.0 | 0.00 | 3.33 | 0.00 | 96 | 1016.3 |
| 20260508032003 | 7 | 0 | 0.0 | 0.0 | 0.00 | 3.51 | 0.00 | 96 | 1016.2 |
| 20260508031008 | 7 | 0 | 0.0 | 0.0 | 0.00 | 3.71 | 0.00 | 96 | 1016.2 |
| 20260508030003 | 7 | 0 | 0.0 | 0.0 | 0.00 | 3.89 | 0.00 | 96 | 1016.1 |
| 20260508025006 | 7 | 0 | 0.0 | 0.0 | 0.00 | 3.94 | 0.00 | 96 | 1016.1 |
| 20260508024220 | 7 | 0 | 0.0 | 0.0 | 0.00 | 3.94 | 0.00 | 96 | 1016.1 |
| 20260508023007 | 7 | 0 | 0.0 | 0.0 | 0.00 | 3.94 | 0.00 | 96 | 1016.1 |
| 20260508022006 | 7 | 0 | 0.0 | 0.0 | 0.00 | 3.94 | 0.00 | 96 | 1016.1 |
| 20260508021006 | 7 | 0 | 0.0 | 0.0 | 0.00 | 3.94 | 0.00 | 96 | 1016.1 |
| 20260508020003 | 7 | 0 | 0.0 | 0.0 | 0.00 | 3.94 | 0.00 | 96 | 1016.1 |
| 20260508015003 | 7 | 0 | 0.0 | 0.0 | 0.00 | 3.94 | 0.00 | 96 | 1016.1 |
| 20260508014003 | 7 | 0 | 0.0 | 0.0 | 0.00 | 3.94 | 0.00 | 96 | 1016.1 |
| 20260508013006 | 7 | 0 | 0.0 | 0.0 | 0.00 | 3.94 | 0.00 | 96 | 1016.1 |
| 20260508012003 | 6 | 0 | 0.0 | 4.8 | 0.00 | 3.94 | 0.00 | 96 | 1016.2 |
| 20260508011003 | 6 | 0 | 0.0 | 0.0 | 0.00 | 3.94 | 0.00 | 96 | 1016.2 |
| 20260508010003 | 6 | 0 | 0.0 | 0.0 | 0.00 | 3.94 | 0.00 | 96 | 1016.2 |
| 20260508005003 | 6 | 0 | 0.0 | 0.0 | 0.00 | 3.94 | 0.00 | 96 | 1016.2 |
| 20260508004006 | 6 | 0 | 0.0 | 0.0 | 0.00 | 3.94 | 0.00 | 96 | 1016.1 |
| 20260508003006 | 6 | 0 | 0.0 | 0.0 | 0.00 | 3.94 | 0.00 | 96 | 1016.1 |
| 20260508002007 | 7 | 0 | 0.0 | 0.0 | 0.00 | 3.94 | 0.00 | 95 | 1016.1 |
| 20260508001003 | 7 | 0 | 0.0 | 0.0 | 0.00 | 3.94 | 0.00 | 95 | 1016.2 |
| 20260508000004 | 7 | 0 | 0.0 | 0.0 | 0.00 | 3.96 | 0.00 | 95 | 1016.2 |
| 20260507235006 | 7 | 0 | 0.0 | 0.0 | 0.00 | 3.96 | 0.00 | 95 | 1016.3 |
| 20260507234008 | 7 | 0 | 0.0 | 0.0 | 0.00 | 3.96 | 0.00 | 96 | 1016.2 |
| 20260507233006 | 7 | 0 | 0.0 | 0.0 | 0.00 | 3.96 | 0.00 | 96 | 1016.3 |
| 20260507232003 | 7 | 0 | 0.0 | 0.0 | 0.00 | 3.96 | 0.00 | 96 | 1016.2 |
| 20260507231006 | 7 | 0 | 0.0 | 0.0 | 0.00 | 3.96 | 0.00 | 96 | 1016.2 |
| 20260507230003 | 7 | 0 | 0.0 | 0.0 | 0.00 | 3.96 | 0.00 | 96 | 1016.2 |
| 20260507225007 | 7 | 0 | 0.0 | 0.0 | 0.00 | 3.96 | 0.00 | 96 | 1016.1 |
| 20260507224006 | 7 | 0 | 0.0 | 0.0 | 0.00 | 3.96 | 0.00 | 96 | 1016.1 |
| 20260507223006 | 7 | 0 | 0.0 | 0.0 | 0.00 | 3.96 | 0.00 | 96 | 1016.1 |
| 20260507222006 | 7 | 325 | 1.6 | 3.2 | 0.00 | 3.96 | 0.00 | 95 | 1016.1 |
| 20260507221216 | 7 | 324 | 1.6 | 4.8 | 0.00 | 3.96 | 0.00 | 95 | 1016.1 |
| 20260507220004 | 7 | 0 | 0.0 | 3.2 | 0.00 | 3.99 | 0.00 | 95 | 1016.0 |
| 20260507215006 | 7 | 0 | 0.0 | 0.0 | 0.00 | 3.99 | 3.99 | 95 | 1016.0 |
| 20260507214003 | 7 | 0 | 0.0 | 0.0 | 0.00 | 3.99 | 3.99 | 95 | 1016.0 |
| 20260507213003 | 7 | 336 | 0.0 | 1.6 | 0.00 | 3.99 | 3.99 | 95 | 1015.8 |
| 20260507212003 | 7 | 336 | 0.0 | 3.2 | 0.00 | 3.99 | 3.99 | 95 | 1015.9 |
| 20260507211003 | 7 | 0 | 0.0 | 3.2 | 0.00 | 3.99 | 3.99 | 95 | 1016.0 |
| 20260507210218 | 7 | 0 | 0.0 | 0.0 | 0.00 | 3.99 | 3.99 | 95 | 1016.0 |
| 20260507205003 | 7 | 303 | 1.6 | 3.2 | 0.00 | 3.99 | 3.99 | 95 | 1016.0 |
| 20260507204003 | 7 | 299 | 1.6 | 4.8 | 0.00 | 3.99 | 3.99 | 95 | 1015.9 |
| 20260507203003 | 7 | 0 | 0.0 | 3.2 | 0.00 | 3.99 | 3.99 | 95 | 1015.8 |
| 20260507202003 | 7 | 0 | 0.0 | 0.0 | 0.00 | 3.99 | 3.99 | 95 | 1015.7 |
| 20260507201003 | 7 | 0 | 0.0 | 0.0 | 0.00 | 3.99 | 3.99 | 95 | 1015.6 |
| 20260507200003 | 7 | 22 | 1.6 | 3.2 | 0.03 | 3.99 | 3.99 | 95 | 1015.4 |
| 20260507195003 | 7 | 27 | 1.6 | 4.8 | 0.03 | 3.99 | 3.99 | 95 | 1015.4 |
| 20260507194003 | 7 | 29 | 3.2 | 8.0 | 0.03 | 3.99 | 3.99 | 95 | 1015.4 |
| 20260507193003 | 7 | 32 | 1.6 | 6.4 | 0.03 | 3.99 | 3.99 | 95 | 1015.3 |
| 20260507192003 | 7 | 12 | 1.6 | 3.2 | 0.03 | 3.99 | 3.99 | 95 | 1015.2 |
| 20260507191003 | 7 | 13 | 1.6 | 4.8 | 0.03 | 3.99 | 3.99 | 95 | 1015.0 |
| 20260507190004 | 7 | 15 | 3.2 | 9.7 | 0.00 | 3.96 | 3.96 | 95 | 1014.8 |
| 20260507185003 | 7 | 18 | 3.2 | 9.7 | 0.00 | 3.96 | 3.96 | 95 | 1014.7 |
| 20260507184003 | 7 | 12 | 3.2 | 8.0 | 0.00 | 3.96 | 3.96 | 95 | 1014.7 |
| 20260507183003 | 7 | 6 | 3.2 | 9.7 | 0.00 | 3.96 | 3.96 | 95 | 1014.6 |
| 20260507182003 | 8 | 356 | 1.6 | 6.4 | 0.00 | 3.96 | 3.96 | 95 | 1014.6 |
| 20260507181003 | 8 | 21 | 3.2 | 6.4 | 0.00 | 3.96 | 3.96 | 95 | 1014.4 |
| 20260507180003 | 8 | 42 | 1.6 | 4.8 | 0.03 | 3.96 | 3.96 | 95 | 1014.3 |
| 20260507175006 | 8 | 76 | 1.6 | 4.8 | 0.05 | 3.96 | 3.96 | 95 | 1014.3 |
| 20260507174003 | 8 | 31 | 0.0 | 3.2 | 0.05 | 3.96 | 3.96 | 95 | 1014.2 |
| 20260507173003 | 8 | 11 | 1.6 | 4.8 | 0.05 | 3.96 | 3.96 | 96 | 1014.1 |
| 20260507172003 | 8 | 15 | 1.6 | 3.2 | 0.05 | 3.96 | 3.96 | 96 | 1014.0 |
| 20260507171003 | 8 | 34 | 3.2 | 6.4 | 0.08 | 3.96 | 3.96 | 96 | 1013.9 |
| 20260507170003 | 8 | 46 | 1.6 | 4.8 | 0.05 | 3.94 | 3.94 | 96 | 1013.9 |
| 20260507165003 | 8 | 27 | 1.6 | 4.8 | 0.05 | 3.91 | 3.91 | 96 | 1013.8 |
| 20260507164006 | 8 | 45 | 1.6 | 3.2 | 0.05 | 3.91 | 3.91 | 96 | 1013.8 |
| 20260507163003 | 8 | 24 | 1.6 | 6.4 | 0.05 | 3.91 | 3.91 | 96 | 1013.7 |
| 20260507162216 | 8 | 31 | 1.6 | 6.4 | 0.05 | 3.91 | 3.91 | 96 | 1013.6 |
| 20260507161003 | 8 | 31 | 1.6 | 6.4 | 0.05 | 3.89 | 3.89 | 96 | 1013.6 |
| 20260507160003 | 8 | 24 | 1.6 | 4.8 | 0.05 | 3.89 | 3.89 | 96 | 1013.5 |
| 20260507155003 | 8 | 41 | 3.2 | 4.8 | 0.05 | 3.86 | 3.86 | 96 | 1013.5 |
| 20260507154003 | 7 | 44 | 3.2 | 8.0 | 0.08 | 3.86 | 3.86 | 96 | 1013.4 |
| 20260507153003 | 8 | 48 | 1.6 | 8.0 | 0.08 | 3.84 | 3.84 | 96 | 1013.4 |
| 20260507152003 | 7 | 347 | 1.6 | 3.2 | 0.13 | 3.84 | 3.84 | 96 | 1013.3 |
| 20260507151003 | 7 | 21 | 1.6 | 8.0 | 0.15 | 3.84 | 3.84 | 96 | 1013.3 |
| 20260507150003 | 7 | 1 | 1.6 | 6.4 | 0.15 | 3.81 | 3.81 | 96 | 1013.1 |
| 20260507145006 | 7 | 0 | 0.0 | 0.0 | 0.15 | 3.81 | 3.81 | 96 | 1013.1 |
| 20260507144003 | 7 | 30 | 0.0 | 3.2 | 0.15 | 3.78 | 3.78 | 96 | 1013.0 |
| 20260507143003 | 7 | 54 | 1.6 | 4.8 | 0.15 | 3.76 | 3.76 | 96 | 1013.0 |
| 20260507142003 | 7 | 33 | 1.6 | 4.8 | 0.15 | 3.71 | 3.71 | 96 | 1012.9 |
| 20260507141003 | 7 | 37 | 1.6 | 6.4 | 0.15 | 3.71 | 3.71 | 96 | 1012.9 |
| 20260507140217 | 7 | 33 | 1.6 | 6.4 | 0.15 | 3.68 | 3.68 | 96 | 1012.8 |
| 20260507135003 | 7 | 31 | 3.2 | 6.4 | 0.15 | 3.63 | 3.63 | 96 | 1012.8 |
| 20260507134217 | 7 | 13 | 3.2 | 6.4 | 0.15 | 3.63 | 3.63 | 95 | 1012.8 |
| 20260507133217 | 7 | 23 | 1.6 | 8.0 | 0.18 | 3.61 | 3.61 | 96 | 1012.7 |
| 20260507132217 | 7 | 358 | 3.2 | 9.7 | 0.18 | 3.58 | 3.58 | 96 | 1012.6 |
| 20260507131221 | 7 | 18 | 3.2 | 11.3 | 0.20 | 3.56 | 3.56 | 96 | 1012.5 |
| 20260507130004 | 7 | 24 | 3.2 | 8.0 | 0.18 | 3.53 | 3.53 | 96 | 1012.4 |
| 20260507125003 | 7 | 16 | 3.2 | 8.0 | 0.15 | 3.48 | 3.48 | 95 | 1012.3 |
| 20260507124003 | 7 | 11 | 3.2 | 6.4 | 0.18 | 3.45 | 3.45 | 95 | 1012.2 |
| 20260507123003 | 7 | 22 | 3.2 | 9.7 | 0.15 | 3.43 | 3.43 | 95 | 1012.2 |
| 20260507122006 | 7 | 20 | 1.6 | 6.4 | 0.15 | 3.38 | 3.38 | 95 | 1012.0 |
| 20260507121003 | 7 | 7 | 1.6 | 4.8 | 0.18 | 3.35 | 3.35 | 95 | 1011.9 |
| 20260507120004 | 7 | 13 | 4.8 | 11.3 | 0.20 | 3.33 | 3.33 | 95 | 1011.8 |
| 20260507115217 | 7 | 15 | 3.2 | 11.3 | 0.20 | 3.33 | 3.33 | 95 | 1011.8 |
| 20260507114216 | 7 | 10 | 3.2 | 8.0 | 0.20 | 3.28 | 3.28 | 95 | 1011.7 |
| 20260507113003 | 7 | 7 | 3.2 | 8.0 | 0.23 | 3.25 | 3.25 | 95 | 1011.5 |
| 20260507112003 | 7 | 14 | 3.2 | 8.0 | 0.23 | 3.23 | 3.23 | 96 | 1011.5 |
| 20260507111003 | 7 | 19 | 1.6 | 6.4 | 0.20 | 3.17 | 3.17 | 96 | 1011.4 |
| 20260507110003 | 7 | 35 | 1.6 | 4.8 | 0.20 | 3.15 | 3.15 | 96 | 1011.4 |
| 20260507105003 | 7 | 38 | 3.2 | 8.0 | 0.18 | 3.10 | 3.10 | 96 | 1011.3 |
| 20260507104220 | 7 | 25 | 3.2 | 8.0 | 0.18 | 3.07 | 3.07 | 96 | 1011.2 |
| 20260507103003 | 7 | 36 | 3.2 | 9.7 | 0.18 | 3.05 | 3.05 | 95 | 1011.0 |
| 20260507102003 | 7 | 33 | 3.2 | 6.4 | 0.18 | 3.00 | 3.00 | 95 | 1011.0 |
| 20260507101003 | 7 | 40 | 1.6 | 9.7 | 0.20 | 2.97 | 2.97 | 95 | 1010.9 |